Time,TemperatureF,DewpointF,PressureIn,WindDirection,WindDirectionDegrees,WindSpeedMPH,WindSpeedGustMPH,Humidity,HourlyPrecipIn,Conditions,Clouds,dailyrainin,SoftwareType,DateUTC
2013-02-27 00:02:00,29.0,27.0,-100.00,SSW,200,1.0,2.0,93,0.00,,,-99.99,,2013-02-27 05:02:00,
2013-02-27 00:12:00,29.0,27.0,-100.00,WSW,240,1.0,2.0,93,0.00,,,-99.99,,2013-02-27 05:12:00,
2013-02-27 00:22:00,29.0,27.0,-100.00,East,90,1.0,3.0,93,0.00,,,-99.99,,2013-02-27 05:22:00,
2013-02-27 00:32:00,29.0,27.0,-100.00,West,260,0.0,1.0,93,0.00,,,-99.99,,2013-02-27 05:32:00,
2013-02-27 00:42:00,29.0,27.0,-100.00,West,270,1.0,1.0,93,0.00,,,-99.99,,2013-02-27 05:42:00,
2013-02-27 00:52:00,29.0,27.0,-100.00,West,260,1.0,1.0,93,0.00,,,-99.99,,2013-02-27 05:52:00,
2013-02-27 01:02:00,29.0,27.0,-100.00,ESE,105,0.0,2.0,93,0.00,,,-99.99,,2013-02-27 06:02:00,
2013-02-27 01:11:00,29.0,27.0,-100.00,West,270,1.0,1.0,93,0.00,,,-99.99,,2013-02-27 06:11:00,
2013-02-27 01:21:00,28.0,27.0,-100.00,West,265,1.0,1.0,93,0.00,,,-99.99,,2013-02-27 06:21:00,
2013-02-27 01:33:00,28.0,27.0,-100.00,WSW,255,1.0,1.0,93,0.00,,,-99.99,,2013-02-27 06:33:00,
2013-02-27 01:42:00,28.0,26.0,-100.00,SW,220,1.0,1.0,93,0.00,,,-99.99,,2013-02-27 06:42:00,
2013-02-27 01:52:00,28.0,26.0,-100.00,SW,220,1.0,1.0,93,0.00,,,-99.99,,2013-02-27 06:52:00,
2013-02-27 02:01:00,28.0,26.0,-100.00,SW,220,1.0,1.0,93,0.00,,,-99.99,,2013-02-27 07:01:00,
2013-02-27 02:12:00,28.0,26.0,-100.00,SW,220,1.0,1.0,93,0.00,,,-99.99,,2013-02-27 07:12:00,
2013-02-27 02:21:00,28.0,26.0,-100.00,SW,220,1.0,1.0,93,0.00,,,-99.99,,2013-02-27 07:21:00,
2013-02-27 02:32:00,27.0,26.0,-100.00,WSW,255,1.0,1.0,93,0.00,,,-99.99,,2013-02-27 07:32:00,
2013-02-27 02:42:00,27.0,26.0,-100.00,NNE,20,2.0,2.0,93,0.00,,,-99.99,,2013-02-27 07:42:00,
2013-02-27 02:52:00,27.0,26.0,-100.00,South,175,0.0,1.0,93,0.00,,,-99.99,,2013-02-27 07:52:00,
2013-02-27 03:01:00,28.0,26.0,-100.00,WSW,240,1.0,1.0,93,0.00,,,-99.99,,2013-02-27 08:01:00,
2013-02-27 03:11:00,27.0,26.0,-100.00,East,85,1.0,2.0,93,0.00,,,-99.99,,2013-02-27 08:11:00,
2013-02-27 03:21:00,28.0,26.0,-100.00,SW,225,1.0,2.0,93,0.00,,,-99.99,,2013-02-27 08:21:00,
2013-02-27 03:32:00,28.0,26.0,-100.00,SSW,205,1.0,2.0,93,0.00,,,-99.99,,2013-02-27 08:32:00,
2013-02-27 03:42:00,28.0,26.0,-100.00,West,260,0.0,1.0,92,0.00,,,-99.99,,2013-02-27 08:42:00,
2013-02-27 03:52:00,28.0,26.0,-100.00,SE,140,1.0,2.0,92,0.00,,,-99.99,,2013-02-27 08:52:00,
2013-02-27 04:02:00,28.0,26.0,-100.00,SW,220,1.0,2.0,92,0.00,,,-99.99,,2013-02-27 09:02:00,
2013-02-27 04:12:00,28.0,26.0,-100.00,West,265,0.0,1.0,92,0.00,,,-99.99,,2013-02-27 09:12:00,
2013-02-27 04:22:00,28.0,26.0,-100.00,NNW,330,1.0,1.0,92,0.00,,,-99.99,,2013-02-27 09:22:00,
2013-02-27 04:32:00,28.0,26.0,-100.00,North,10,0.0,1.0,92,0.00,,,-99.99,,2013-02-27 09:32:00,
2013-02-27 04:41:00,28.0,26.0,-100.00,WSW,255,1.0,1.0,92,0.00,,,-99.99,,2013-02-27 09:41:00,
2013-02-27 04:51:00,28.0,26.0,-100.00,WSW,250,1.0,1.0,92,0.00,,,-99.99,,2013-02-27 09:51:00,
2013-02-27 05:01:00,28.0,26.0,-100.00,West,265,0.0,1.0,92,0.00,,,-99.99,,2013-02-27 10:01:00,
2013-02-27 05:12:00,28.0,26.0,-100.00,SE,130,0.0,2.0,92,0.00,,,-99.99,,2013-02-27 10:12:00,
2013-02-27 05:22:00,28.0,26.0,-100.00,North,350,0.0,1.0,92,0.00,,,-99.99,,2013-02-27 10:22:00,
2013-02-27 05:32:00,28.0,26.0,-100.00,NW,305,1.0,1.0,92,0.00,,,-99.99,,2013-02-27 10:32:00,
2013-02-27 05:42:00,28.0,26.0,-100.00,NNE,30,0.0,1.0,92,0.00,,,-99.99,,2013-02-27 10:42:00,
2013-02-27 05:52:00,28.0,26.0,-100.00,West,270,1.0,1.0,92,0.00,,,-99.99,,2013-02-27 10:52:00,
2013-02-27 06:02:00,28.0,26.0,-100.00,WSW,245,1.0,2.0,92,0.00,,,-99.99,,2013-02-27 11:02:00,
2013-02-27 06:12:00,29.0,26.0,-100.00,SW,225,0.0,1.0,91,0.00,,,-99.99,,2013-02-27 11:12:00,
2013-02-27 06:22:00,28.0,26.0,-100.00,SSE,155,0.0,2.0,91,0.00,,,-99.99,,2013-02-27 11:22:00,
2013-02-27 06:32:00,29.0,26.0,-100.00,West,260,1.0,1.0,91,0.00,,,-99.99,,2013-02-27 11:32:00,
2013-02-27 06:42:00,29.0,26.0,-100.00,West,275,0.0,1.0,91,0.00,,,-99.99,,2013-02-27 11:42:00,
2013-02-27 06:52:00,29.0,27.0,-100.00,WSW,250,0.0,1.0,91,0.00,,,-99.99,,2013-02-27 11:52:00,
2013-02-27 07:02:00,29.0,27.0,-100.00,SSW,210,1.0,2.0,90,0.00,,,-99.99,,2013-02-27 12:02:00,
2013-02-27 07:13:00,29.0,27.0,-100.00,NW,310,0.0,2.0,90,0.00,,,-99.99,,2013-02-27 12:13:00,
2013-02-27 07:22:00,29.0,27.0,-100.00,NNW,330,1.0,1.0,90,0.07,,,-99.99,,2013-02-27 12:22:00,
2013-02-27 07:33:00,29.0,27.0,-100.00,ESE,110,0.0,1.0,90,0.03,,,-99.99,,2013-02-27 12:33:00,
2013-02-27 07:42:00,30.0,27.0,-100.00,West,270,1.0,1.0,90,0.04,,,-99.99,,2013-02-27 12:42:00,
2013-02-27 07:52:00,30.0,27.0,-100.00,NW,310,1.0,2.0,90,0.07,,,-99.99,,2013-02-27 12:52:00,
2013-02-27 08:02:00,30.0,28.0,-100.00,WSW,240,1.0,1.0,90,0.00,,,-99.99,,2013-02-27 13:02:00,
2013-02-27 08:11:00,31.0,28.0,-100.00,NNW,345,0.0,1.0,88,0.00,,,-99.99,,2013-02-27 13:11:00,
2013-02-27 08:22:00,32.0,28.0,-100.00,NNW,345,1.0,1.0,86,0.00,,,-99.99,,2013-02-27 13:22:00,
2013-02-27 08:32:00,32.0,26.0,-100.00,East,100,2.0,4.0,78,0.00,,,-99.99,,2013-02-27 13:32:00,
2013-02-27 08:42:00,33.0,25.0,-100.00,East,95,4.0,6.0,70,0.00,,,-99.99,,2013-02-27 13:42:00,
2013-02-27 08:52:00,35.0,24.0,-100.00,ESE,115,3.0,10.0,64,0.00,,,-99.99,,2013-02-27 13:52:00,
2013-02-27 09:02:00,35.0,25.0,-100.00,ENE,75,1.0,4.0,66,0.00,,,-99.99,,2013-02-27 14:02:00,
2013-02-27 09:12:00,35.0,25.0,-100.00,East,85,6.0,12.0,65,0.00,,,-99.99,,2013-02-27 14:12:00,
2013-02-27 09:22:00,36.0,25.0,-100.00,East,90,7.0,14.0,65,0.00,,,-99.99,,2013-02-27 14:22:00,
2013-02-27 09:32:00,36.0,26.0,-100.00,ESE,110,9.0,15.0,65,0.00,,,-99.99,,2013-02-27 14:32:00,
2013-02-27 09:42:00,36.0,27.0,-100.00,ESE,110,9.0,15.0,67,0.00,,,-99.99,,2013-02-27 14:42:00,
2013-02-27 09:52:00,36.0,27.0,-100.00,SE,125,7.0,13.0,67,0.00,,,-99.99,,2013-02-27 14:52:00,
2013-02-27 10:02:00,37.0,26.0,-100.00,East,100,9.0,16.0,65,0.00,,,-99.99,,2013-02-27 15:02:00,
2013-02-27 10:12:00,37.0,26.0,-100.00,ESE,115,10.0,17.0,64,0.00,,,-99.99,,2013-02-27 15:12:00,
2013-02-27 10:22:00,37.0,26.0,-100.00,ESE,110,7.0,15.0,64,0.00,,,-99.99,,2013-02-27 15:22:00,
2013-02-27 10:32:00,37.0,26.0,-100.00,ESE,105,7.0,14.0,62,0.00,,,-99.99,,2013-02-27 15:32:00,
2013-02-27 10:42:00,37.0,26.0,-100.00,ESE,115,7.0,13.0,62,0.00,,,-99.99,,2013-02-27 15:42:00,
2013-02-27 10:52:00,37.0,26.0,-100.00,ESE,115,9.0,17.0,63,0.00,,,-99.99,,2013-02-27 15:52:00,
2013-02-27 11:02:00,37.0,26.0,-100.00,ESE,115,9.0,14.0,64,0.00,,,-99.99,,2013-02-27 16:02:00,
2013-02-27 11:12:00,37.0,26.0,-100.00,ESE,115,7.0,19.0,64,0.00,,,-99.99,,2013-02-27 16:12:00,
2013-02-27 11:22:00,37.0,26.0,-100.00,ESE,115,8.0,15.0,64,0.00,,,-99.99,,2013-02-27 16:22:00,
2013-02-27 11:32:00,37.0,26.0,-100.00,East,95,7.0,12.0,65,0.00,,,-99.99,,2013-02-27 16:32:00,
2013-02-27 11:42:00,37.0,26.0,-100.00,SE,140,7.0,13.0,65,0.00,,,-99.99,,2013-02-27 16:42:00,
2013-02-27 11:52:00,37.0,27.0,-100.00,ESE,120,5.0,16.0,66,0.00,,,-99.99,,2013-02-27 16:52:00,
2013-02-27 12:02:00,36.0,27.0,-100.00,ESE,110,7.0,12.0,69,0.00,,,-99.99,,2013-02-27 17:02:00,
2013-02-27 12:11:00,36.0,28.0,-100.00,ESE,110,7.0,12.0,73,0.00,,,-99.99,,2013-02-27 17:11:00,
2013-02-27 12:21:00,35.0,28.0,-100.00,ESE,115,8.0,14.0,76,0.04,,,-99.99,,2013-02-27 17:21:00,
2013-02-27 12:32:00,34.0,29.0,-100.00,East,95,6.0,16.0,82,0.07,,,-99.99,,2013-02-27 17:32:00,
2013-02-27 12:42:00,34.0,29.0,-100.00,East,90,3.0,7.0,82,0.24,,,-99.99,,2013-02-27 17:42:00,
2013-02-27 12:52:00,33.0,29.0,-100.00,East,95,4.0,11.0,83,0.08,,,-99.99,,2013-02-27 17:52:00,
2013-02-27 13:02:00,34.0,28.0,-100.00,ESE,115,8.0,14.0,78,0.00,,,-99.99,,2013-02-27 18:02:00,
2013-02-27 13:11:00,34.0,27.0,-100.00,ESE,110,9.0,18.0,75,0.00,,,-99.99,,2013-02-27 18:11:00,
2013-02-27 13:22:00,34.0,27.0,-100.00,SE,135,8.0,16.0,74,0.00,,,-99.99,,2013-02-27 18:22:00,
2013-02-27 13:32:00,34.0,27.0,-100.00,ESE,110,9.0,21.0,75,0.01,,,-99.99,,2013-02-27 18:32:00,
2013-02-27 13:42:00,33.0,28.0,-100.00,SE,130,9.0,20.0,79,0.04,,,-99.99,,2013-02-27 18:42:00,
2013-02-27 13:51:00,33.0,28.0,-100.00,ESE,110,11.0,21.0,81,0.03,,,-99.99,,2013-02-27 18:51:00,
2013-02-27 14:02:00,34.0,27.0,-100.00,ESE,115,7.0,19.0,77,0.00,,,-99.99,,2013-02-27 19:02:00,
2013-02-27 14:12:00,34.0,27.0,-100.00,ESE,105,12.0,19.0,74,0.00,,,-99.99,,2013-02-27 19:12:00,
2013-02-27 14:21:00,34.0,27.0,-100.00,ESE,110,12.0,24.0,73,0.00,,,-99.99,,2013-02-27 19:21:00,
2013-02-27 14:32:00,35.0,26.0,-100.00,ESE,105,12.0,20.0,70,0.00,,,-99.99,,2013-02-27 19:32:00,
2013-02-27 14:42:00,35.0,26.0,-100.00,ESE,110,11.0,19.0,68,0.00,,,-99.99,,2013-02-27 19:42:00,
2013-02-27 14:52:00,36.0,26.0,-100.00,ESE,115,11.0,21.0,66,0.00,,,-99.99,,2013-02-27 19:52:00,
2013-02-27 15:01:00,36.0,26.0,-100.00,East,90,12.0,20.0,66,0.00,,,-99.99,,2013-02-27 20:01:00,
2013-02-27 15:12:00,36.0,26.0,-100.00,East,95,10.0,19.0,67,0.00,,,-99.99,,2013-02-27 20:12:00,
2013-02-27 15:22:00,36.0,26.0,-100.00,ESE,115,12.0,24.0,66,0.00,,,-99.99,,2013-02-27 20:22:00,
2013-02-27 15:32:00,36.0,26.0,-100.00,ESE,105,13.0,22.0,67,0.00,,,-99.99,,2013-02-27 20:32:00,
2013-02-27 15:42:00,36.0,26.0,-100.00,ESE,105,14.0,24.0,66,0.00,,,-99.99,,2013-02-27 20:42:00,
2013-02-27 15:52:00,36.0,25.0,-100.00,ESE,115,11.0,24.0,65,0.00,,,-99.99,,2013-02-27 20:52:00,
2013-02-27 16:02:00,36.0,25.0,-100.00,ESE,110,11.0,24.0,63,0.00,,,-99.99,,2013-02-27 21:02:00,
2013-02-27 16:11:00,36.0,25.0,-100.00,East,85,10.0,21.0,64,0.00,,,-99.99,,2013-02-27 21:11:00,
2013-02-27 16:22:00,36.0,25.0,-100.00,ESE,110,15.0,27.0,65,0.00,,,-99.99,,2013-02-27 21:22:00,
2013-02-27 16:32:00,35.0,25.0,-100.00,East,85,8.0,19.0,66,0.00,,,-99.99,,2013-02-27 21:32:00,
2013-02-27 16:42:00,36.0,25.0,-100.00,ESE,110,12.0,21.0,63,0.00,,,-99.99,,2013-02-27 21:42:00,
2013-02-27 16:52:00,36.0,24.0,-100.00,ESE,105,11.0,26.0,62,0.00,,,-99.99,,2013-02-27 21:52:00,
2013-02-27 17:02:00,36.0,24.0,-100.00,East,100,9.0,17.0,62,0.00,,,-99.99,,2013-02-27 22:02:00,
2013-02-27 17:11:00,35.0,24.0,-100.00,East,80,7.0,19.0,64,0.00,,,-99.99,,2013-02-27 22:11:00,
2013-02-27 17:21:00,35.0,24.0,-100.00,ESE,115,10.0,21.0,63,0.00,,,-99.99,,2013-02-27 22:21:00,
2013-02-27 17:32:00,35.0,24.0,-100.00,East,95,11.0,19.0,64,0.00,,,-99.99,,2013-02-27 22:32:00,
2013-02-27 17:42:00,35.0,24.0,-100.00,East,95,12.0,24.0,64,0.00,,,-99.99,,2013-02-27 22:42:00,
2013-02-27 17:51:00,34.0,24.0,-100.00,ESE,105,8.0,20.0,65,0.00,,,-99.99,,2013-02-27 22:51:00,
2013-02-27 18:01:00,34.0,23.0,-100.00,ESE,105,14.0,24.0,64,0.00,,,-99.99,,2013-02-27 23:01:00,
2013-02-27 18:11:00,34.0,24.0,-100.00,East,90,11.0,21.0,65,0.00,,,-99.99,,2013-02-27 23:11:00,
2013-02-27 18:21:00,34.0,23.0,-100.00,East,90,12.0,24.0,64,0.00,,,-99.99,,2013-02-27 23:21:00,
2013-02-27 18:32:00,34.0,23.0,-100.00,East,95,12.0,19.0,64,0.00,,,-99.99,,2013-02-27 23:32:00,
2013-02-27 18:42:00,34.0,23.0,-100.00,ESE,110,14.0,24.0,63,0.00,,,-99.99,,2013-02-27 23:42:00,
2013-02-27 18:52:00,34.0,23.0,-100.00,East,100,10.0,23.0,62,0.00,,,-99.99,,2013-02-27 23:52:00,
2013-02-27 19:02:00,34.0,22.0,-100.00,East,100,13.0,20.0,62,0.00,,,-99.99,,2013-02-28 00:02:00,
2013-02-27 19:12:00,34.0,23.0,-100.00,ESE,110,17.0,32.0,62,0.00,,,-99.99,,2013-02-28 00:12:00,
2013-02-27 19:21:00,33.0,23.0,-100.00,ESE,105,17.0,34.0,65,0.00,,,-99.99,,2013-02-28 00:21:00,
2013-02-27 19:32:00,33.0,24.0,-100.00,SE,125,19.0,30.0,69,0.03,,,-99.99,,2013-02-28 00:32:00,
2013-02-27 19:42:00,31.0,26.0,-100.00,ESE,120,19.0,31.0,80,0.08,,,-99.99,,2013-02-28 00:42:00,
2013-02-27 19:52:00,31.0,26.0,-100.00,ESE,110,19.0,31.0,81,0.01,,,-99.99,,2013-02-28 00:52:00,
2013-02-27 20:01:00,32.0,25.0,-100.00,ESE,105,19.0,30.0,75,0.00,,,-99.99,,2013-02-28 01:01:00,
2013-02-27 20:11:00,32.0,26.0,-100.00,ESE,120,13.0,30.0,76,0.00,,,-99.99,,2013-02-28 01:11:00,
2013-02-27 20:22:00,31.0,26.0,-100.00,ESE,105,12.0,26.0,79,0.00,,,-99.99,,2013-02-28 01:22:00,
2013-02-27 20:32:00,32.0,26.0,-100.00,ESE,105,9.0,24.0,77,0.00,,,-99.99,,2013-02-28 01:32:00,
2013-02-27 20:42:00,32.0,26.0,-100.00,ESE,105,9.0,21.0,77,0.00,,,-99.99,,2013-02-28 01:42:00,
2013-02-27 20:52:00,31.0,26.0,-100.00,East,95,4.0,14.0,81,0.00,,,-99.99,,2013-02-28 01:52:00,
2013-02-27 21:01:00,31.0,26.0,-100.00,NE,55,6.0,17.0,81,0.00,,,-99.99,,2013-02-28 02:01:00,
2013-02-27 21:11:00,33.0,26.0,-100.00,ESE,110,12.0,18.0,74,0.00,,,-99.99,,2013-02-28 02:11:00,
2013-02-27 21:22:00,31.0,26.0,-100.00,East,85,7.0,20.0,79,0.00,,,-99.99,,2013-02-28 02:22:00,
2013-02-27 21:32:00,31.0,26.0,-100.00,ESE,110,7.0,17.0,81,0.00,,,-99.99,,2013-02-28 02:32:00,
2013-02-27 21:41:00,31.0,26.0,-100.00,ESE,110,7.0,17.0,81,0.00,,,-99.99,,2013-02-28 02:41:00,
2013-02-27 21:52:00,31.0,26.0,-100.00,ESE,110,7.0,17.0,81,0.00,,,-99.99,,2013-02-28 02:52:00,
2013-02-27 22:02:00,31.0,26.0,-100.00,East,95,4.0,15.0,83,0.00,,,-99.99,,2013-02-28 03:02:00,
2013-02-27 22:11:00,31.0,26.0,-100.00,East,80,3.0,10.0,83,0.00,,,-99.99,,2013-02-28 03:11:00,
2013-02-27 22:21:00,31.0,26.0,-100.00,East,85,3.0,11.0,82,0.00,,,-99.99,,2013-02-28 03:21:00,
2013-02-27 22:32:00,31.0,27.0,-100.00,East,80,2.0,10.0,83,0.01,,,-99.99,,2013-02-28 03:32:00,
2013-02-27 22:42:00,31.0,27.0,-100.00,ESE,105,3.0,7.0,83,0.10,,,-99.99,,2013-02-28 03:42:00,
2013-02-27 22:52:00,31.0,27.0,-100.00,East,95,5.0,9.0,84,0.11,,,-99.99,,2013-02-28 03:52:00,
2013-02-27 23:02:00,31.0,27.0,-100.00,East,100,4.0,9.0,86,0.03,,,-99.99,,2013-02-28 04:02:00,
2013-02-27 23:11:00,31.0,27.0,-100.00,East,90,4.0,11.0,84,0.00,,,-99.99,,2013-02-28 04:11:00,
2013-02-27 23:22:00,31.0,26.0,-100.00,ESE,110,9.0,13.0,80,0.00,,,-99.99,,2013-02-28 04:22:00,
2013-02-27 23:32:00,31.0,26.0,-100.00,East,90,2.0,11.0,81,0.00,,,-99.99,,2013-02-28 04:32:00,
2013-02-27 23:42:00,31.0,27.0,-100.00,ENE,75,1.0,7.0,83,0.00,,,-99.99,,2013-02-28 04:42:00,
2013-02-27 23:52:00,31.0,26.0,-100.00,East,100,2.0,7.0,81,0.00,,,-99.99,,2013-02-28 04:52:00,